Regional Weather Roundup
Issued by NWS State College, PA

Home | Current Version | Previous Version | Text Only | Print | Product List | Glossary On
Versions: 1 2 3 4 5 6 7 8 9 10 11 12 13 14 15 16 17 18 19 20 21 22 23 24 25 26 27 28 29 30 31 32 33 34 35 36 37 38 39 40 41 42 43 44 45 46 47 48 49 50
000
ASUS41 KCTP 090903
RWRCTP

REGIONAL WEATHER ROUNDUP
NATIONAL WEATHER SERVICE STATE COLLEGE PA
400 AM EST FRI DEC 09 2016

Note: "fair" indicates few or no clouds below 12,000 feet with no
significant weather and/or obstructions to visibility.

* = STATION THAT DOES NOT REPORT PRECIPITATION /E.G. RAIN...SNOW...ETC/
    THUNDER OR FOG.

PAZ002>004-007>009-013>016-020>023-029>032-091000-
WESTERN PENNSYLVANIA

CITY           SKY/WX    TMP DP  RH WIND       PRES   REMARKS
ERIE           CLOUDY    32  20  61 W20G26    30.18R
MEADVILLE      LGT SNOW  21  18  88 SW13      30.18R VSB 1   WCI   9
FRANKLIN*        N/A     21  16  79 W12G18    30.18S WCI   9
NEW CASTLE     FLURRIES  23  18  81 W10G26    30.25R WCI  12
BEAVER COUNTY  NOT AVBL
BUTLER*        CLOUDY    21  16  79 W12G22    30.26S WCI   9
PITTSBURGH INT FLURRIES  23  16  74 W15G23    30.25F WCI  10
PITTSBURGH     MOCLDY    21  13  71 W15G24    30.24S WCI   8
INDIANA*       CLOUDY    23  18  80 W13G20    30.22S WCI  11
LATROBE        CLOUDY    23  16  74 W13G24    30.26R WCI  11
WASHINGTON CO* MOCLDY    21  16  79 SW10G17   30.29S WCI  10
$$

PAZ004>006-010>012-017>019-024>028-033>037-041-042-045-046-049>053-091000-
CENTRAL PENNSYLVANIA

CITY           SKY/WX    TMP DP  RH WIND       PRES   REMARKS
BRADFORD       LGT SNOW  21  18  88 W12G21    30.04S VSB 1   WCI   9
DUBOIS         LGT SNOW  21  16  81 W17G24    30.12R WCI   7
CLEARFIELD     CLOUDY    23  17  78 SW15G23   30.13S WCI  10
JOHNSTOWN      LGT SNOW  19  15  84 W16G23    30.11S FOG     WCI   4
ALTOONA        CLOUDY    25  16  68 W12G17    30.16S WCI  14
STATE COLLEGE  CLOUDY    25  17  69 W16G29    30.13S WCI  12
WILLIAMSPORT   CLOUDY    30  18  60 W14       30.11R
SELINSGROVE    PTCLDY    29  18  63 VRB6      30.15S
FT INDIANTOWN  CLOUDY    29  15  57 VRB7      30.14S
CAPITAL CITY   CLOUDY    31  14  49 W9        30.19R
HARRISBURG     CLOUDY    31  18  58 W13       30.18R
YORK           PTCLDY    26  15  63 W9        30.19R
$$

PAZ038>040-043-044-047-048-054-055-060>062-067>071-091000-
EASTERN PENNSYLVANIA

CITY           SKY/WX    TMP DP  RH WIND       PRES   REMARKS
SCRANTON       CLOUDY    29  17  61 SW8       30.03S
MOUNT POCONO   MOCLDY    23  14  68 W20G28    29.94S WCI   8
ALLENTOWN      CLEAR     30  16  56 W13       30.09S
QUAKERTOWN*    SUNNY     28  16  59 W9G18     30.09F
READING        CLOUDY    30  15  53 W10       30.14R
LANCASTER      MOCLDY    29  17  61 W14       30.16R
COATESVILLE    SUNNY     27  16  63 W17G25    30.14R WCI  14
POTTSTOWN      PTCLDY    28  15  58 W15G26    30.12S
BLUE BELL      PTCLDY    30  18  59 W9G17     30.11S
DOYLESTOWN     CLEAR     30  17  58 W9G21     30.08S
WILLOW GROVE   NOT AVBL
NORTH PHILA    PTCLDY    31  16  54 W14G22    30.13S
PHILADELPHIA   PTCLDY    31  14  49 W16G22    30.16R
$$




USA.gov is the U.S. government's official web portal to all federal, state and local government web resources and services.